Terminal Aerodrome Forecast
Issued by NWS

Home | Current Version | Previous Version | Text Only | Print | Product List | Glossary On
Versions: 1 2 3 4 5 6 7 8 9 10 11 12 13 14 15 16 17 18 19 20 21 22 23 24 25 26 27 28 29 30 31 32
298
FTUS41 KBOX 040535
TAFBAF
TAF
KBAF 040535Z 0406/0506 06004KT P6SM BKN009 OVC015
     FM041000 VRB03KT P6SM VCSH OVC030
     FM042000 07006KT P6SM -RA OVC025
     FM042300 05007KT P6SM -RA OVC015=

USA.gov is the U.S. government's official web portal to all federal, state and local government web resources and services.